www.pogodaiklimat.ru

Погода и климат >> Архив погоды >> Гондурас >> La Esperanza


ПОГОДА в La Esperanza

  • Прогноз погоды в La Esperanza
  • Монитор погоды в La Esperanza
  • Климат города

АРХИВ ПОГОДЫ в La Esperanza

Время (UTC), дата Ветер
(напр.,м/с)
 
Видим.   Явления Облачность Т
(С)
Тd
(С)
f
(%)
Тe
(С)
Тes
(С)
Комфортность P
(гПа)
Po
(гПа)
Тmin
(С)
Tmax
(С)
R
(мм)
R24
(мм)
S
(см)
00 14.02 В 3 20 км 6/6 660 м
[Sc diur, vesp]
+17.6 +12.1 70 +18 +18 1016.1 837.7 +11.2 +21.2
12 14.02 В 7 10 км 3/3 600 м
[Sc diur, vesp]
+12.8 +10.3 85 +10 +10 1016.3 837.9 +12.5 +21.2
15 14.02 СВ 6 20 км 8/8 660 м
[Sc diur, vesp]
+15.7 +11.1 74 +14 +15 1017.5 839.4
18 14.02 СВ 6 20 км 6/6 720 м
[Sc diur, vesp]
+17.4 +11.4 68 +17 +19 1017.6 839.5 +12.5 +17.4
21 14.02 СВ 6 20 км 3/3 720 м
[Cu hum]
+17.6 +10.2 62 +17 +19 1014.6 837.6
00 15.02 В 5 10 км 4/4 600 м
[Sc diur, vesp]
+16.8 +12.1 74 +16 +16 1015.7 837.3 +12.5 +20.4
12 15.02 СВ 4 20 км 5/5 600 м
[Sc diur, vesp]
+12.8 +10.3 85 +11 +11 1016.3 837.9 +12.4 +20.4
15 15.02 В 5 20 км 3/3 660 м
[Cu hum]
+16.3 +10.3 68 +15 +19 1016.6 838.7
18 15.02 В 5 20 км 1/1 720 м
[Cu hum]
+20.0 +10.5 54 +21 +29 комфорт 1015.1 838.5 +12.4 +20.0
21 15.02 СВ 4 10 км 1/1 720 м
[Cu hum]
+20.4 +9.4 49 +22 +27 комфорт 1013.3 836.5
00 16.02 СВ 4 10 км 3/3 660 м
[Cu hum]
+17.4 +10.5 64 +17 +17 1014.7 836.6 +12.4 +20.9
12 16.02 СВ 1 20 км 1/1 660 м
[Sc diur, vesp]
+10.8 +4.5 65 +11 +11 1015.0 837.4 +10.8 +20.9
15 16.02 СВ 3 20 км 1/1 660 м
[Cu hum]
+16.0 +9.4 65 +16 +22 1016.4 838.5
18 16.02 СВ 3 20 км 3/3 720 м
[Cu hum]
+19.7 +10.9 57 +21 +32 комфорт 1014.7 955.5 +10.8 +19.7
21 16.02 В 3 20 км 4/4 720 м
[Cu hum]
+20.6 +10.8 53 +23 +27 комфорт 1013.2 1013.0
00 17.02 СВ 1 20 км 1/1 660 м
[Cu hum]
+17.6 +12.0 70 +19 +19 1014.9 836.1 +10.8 +21.4
12 17.02 штиль 0 20 км 3/3 660 м
[Sc diur, vesp]
+9.0 +8.7 98 +8 +8 1017.2 837.5 +9.0 +21.4
15 17.02 СВ 1 20 км 1/1 720 м
[Cu hum]
+16.6 +8.8 60 +17 +27 1016.6 838.0
18 17.02 штиль 0 20 км 1/1 720 м
[Cu hum]
+21.4 +10.5 50 +23 +45 комфорт 1014.3 837.9 +8.4 +21.4
21 17.02 СВ 1 20 км 6/6 720 м
[Cu med, cong]
+19.2 +12.4 65 +21 +25 комфорт 1014.0 836.5
00 18.02 СВ 1 10 км 9/3 660 м
[Cu hum Ac trans Ci fib]
+17.2 +14.6 85 +18 +18 1016.4 836.9 +8.4 +23.0
12 18.02 В 3 10 км 9/9 600 м
[Sc diur, vesp]
+14.3 +12.7 90 +13 +13 1013.9 836.4 +11.6 +23.0
15 18.02 СВ 4 5000 м 9/9 480 м
[Sc diur, vesp]
+14.7 +12.8 88 +13 +14 1015.9 837.5
18 18.02 В 5 20 км 5/5 720 м
[Cu hum]
+20.6 +10.8 53 +22 +27 комфорт 1014.0 837.0 +11.6 +20.6
21 18.02 В 4 20 км 4/4 720 м
[Cu med, cong]
+21.6 +11.0 51 +23 +27 комфорт 1011.9 835.3
00 19.02 СВ 4 20 км 3/3 720 м
[Cu hum Ci fib]
+18.1 +10.6 62 +18 +18 1012.8 835.5 +11.6 +22.0
12 19.02 СВ 1 15 км 1/1 570 м
[Sc diur, vesp]
+10.0 +9.7 98 +9 +9 1014.8 836.0 +1.0 +22.0
18 19.02 СВ 1 20 км 1/1 720 м
[Cu hum]
+22.0 +9.7 46 +24 +43 комфорт 1013.3 836.5 +9.0 +22.0
21 19.02 СВ 1 20 км 6/6 720 м
[Cu med, cong]
+20.6 +13.3 63 +24 +28 комфорт 1011.6 835.0
00 20.02 СВ 1 20 км 8/8 660 м
[Cu med, cong]
+17.6 +15.5 87 +19 +19 1014.1 835.5 +9.0 +24.6
12 20.02 штиль 0 800 м туман на расстоянии 1/1 540 м
[Sc]
+6.6 +6.6 100 +5 +5 1016.3 836.1 +6.6 +24.6
15 20.02 В 1 20 км {туман} ясно +17.2 +11.5 69 +18 +29 1014.3 837.3
18 20.02 ЮВ 3 20 км {туман} 1/1 720 м
[Cu hum]
+23.2 +9.1 41 +25 +38 комфорт 1012.9 837.2 +6.6 +23.2
21 20.02 штиль 0 20 км 5/5 800 м
[Cu hum]
+22.2 +11.7 51 +24 +30 комфорт 1013.0 835.7

 

Местоположение метеостанции La Esperanza (Гондурас): широта 14.32 долгота -88.16 высота над уровнем моря 1674 м.

В архиве по умолчанию представлена погода в La Esperanza за последнюю неделю. Архивные данные за месяц целиком и за предыдущие месяцы, начиная с января 2011 года, Вы можете получить, выбрав интересующий диапазон дат из раскрывающегося списка и нажав кнопку "Ввод!".

Внимание! Время в таблицах - всемирное. Для получения местного времени необходимо прибавить поправку, которая в La Esperanza равна -6 ч.

Смотрите также архив погоды в соседних городах и на ближайших метеорологических станциях:

Погода в Santa Rosa De Copan (Гондурас) (84 км)
Погода в Tegucigalpa (Гондурас) (107 км)
Погода в Nueva Ocotepeque (Гондурас) (111 км)
Погода в La Mesa (Гондурас) (128 км)
Погода в Amapala (Гондурас) (129 км)
Погода в Yoro (Гондурас) (147 км)
Погода в Choluteca (Гондурас) (155 км)
Погода в Puerto Barrios (Гватемала) (163 км)
Погода в Tela (Гондурас) (172 км)
Погода в La Ceiba (Гондурас) (210 км)

Пояснения к столбцам:

Ветер - указаны скорость ветра в м/с - средняя за 10 мин, порывы в срок и между сроками (в фигурных скобках) и направление, откуда дует ветер: С - северный, СВ - северо-восточный, В - восточный, ЮВ - юго-восточный, Ю - южный, ЮЗ - юго-западный, З - западный, СЗ - северо-западный.
Видимость - горизонтальная дальность видимости в метрах или километрах. При видимости от 1 до 10 км при отсутствии осадков обычно наблюдается дымка, при ухудшении видимости до 1 км и менее - туман. В сухую погоду видимость может ухудшаться дымом, пылью или мглою.
Явления - указаны атмосферные явления, наблюдавшиеся в срок или в последний час перед сроком; фигурными скобками обозначены явления, наблюдавшиеся между сроками (за 1-3 часа до срока); квадратными скобками обозначены град или гололедные отложения с указанием их диаметра в мм.
Облачность - указаны через наклонную черту общая и нижняя облачность в баллах и высота нижней границы облаков в метрах; квадратными скобками обозначены формы облаков: Ci - перистые, Cs - перисто-слоистые, Cc - перисто-кучевые, Ac - высококучевые, As - высокослоистые, Sc - слоисто-кучевые, Ns - слоисто-дождевые, Cu - кучевые, Cb - кучево-дождевые. Подробнее классификацию облаков см. в Атласе облаков (PDF).
T - Температура воздуха - температура, измеренная на высоте 2 м над землей.
Td - Температура точки росы - температура, при понижении до которой содержащийся в воздухе водяной пар достигнет насыщения.
f - Относительная влажность воздуха - влажноcть воздуха, измеренная на высоте 2 м над землей.
Te - Эффективная температура - температура, которую ощущает одетый по сезону человек в тени. Характеристика душности погоды. При расчете учитывается влияние влажности воздуха и скорости ветра на теплоощущения человека.
Tes - Эффективная температура на солнце - температура, которую ощущает человек, с поправкой на солнечный нагрев. Характеристика знойности погоды. Зависит от высоты солнца над горизонтом, облачности и скорости ветра. Ночью, в пасмурную погоду, а также при ветре 12 м/с и более поправка равна нулю.
P - Атмосферное давление - приведенное к уровню моря атмосферное давление.
Po - Атмосферное давление - измеренное на уровне метеостанции атмосферное давление.
Tmin - Минимальная температура - минимум температуры воздуха на высоте 2 м над землей.
Tmax - Максимальная температура - максимум температуры воздуха на высоте 2 м над землей.
R - Количество осадков - Количество выпавших осадков за период времени, мм. При наведении курсора мыши на число - период времени, за который выпало указанное количество осадков.
R24 - Количество осадков - Количество выпавших осадков за 24 часа, мм.
S - Снежный покров - Высота снежного покрова, см. При наведении курсора мыши на число - состояние снежного покрова и степень покрытия местности в баллах.